Varna, Bulgaria

8:44 PM EEST on May 29, 2017 (GMT +0300)
Varna

Weather History for LBWN - November, 2013

Change the Weather History Date:

Wednesday, November 13, 2013

  Actual Average Record
Temperature  
Mean Temperature 54 °F -  
Max Temperature 56 °F 51 °F 71 °F (2010)
Min Temperature 50 °F 39 °F 32 °F (2007)
Degree Days  
Heating Degree Days 12    
Growing Degree Days 4 (Base 50)    
Moisture  
Dew Point 47 °F    
Average Humidity 82    
Maximum Humidity 94    
Minimum Humidity 72    
Precipitation  
Precipitation 0.00 in 0.06 in - ()
Sea Level Pressure  
Sea Level Pressure 30.22 in    
Wind  
Wind Speed 5 mph ()    
Max Wind Speed 13 mph    
Max Gust Speed -    
Visibility 6.0 miles    
Events Rain    
Averages and records for this station are not official NWS values.
T = Trace of Precipitation, MM = Missing Value Source: Averaged Metar Reports

Daily Weather History Graph

Daily Weather History Graph

Search for Another Location

Airport or City:

Trip Planner

Search our weather history database for the weather conditions in past years. The results will help you decide how hot, cold, wet, or windy it might be!

Date:

Astronomy

Nov. 13, 2013 Rise Set
Actual Time 6:58 AM EET 4:46 PM EET
Civil Twilight 6:28 AM EET 5:16 PM EET
Nautical Twilight 5:53 AM EET 5:50 PM EET
Astronomical Twilight 5:20 AM EET 6:24 PM EET
Moon 2:28 PM EET (11/13) 2:24 AM EET (11/13)
Length of Visible Light 10h 48m
Length of Day
9h 47m
Waxing Gibbous, 82% of the Moon is Illuminated
Nov 13
Waxing Gibbous
Nov 17
Full
Nov 25
Last Quarter
Dec 3
New
Dec 9
First Quarter

Hourly Weather History & Observations

Time (EET) Temp. Dew Point Humidity Pressure Visibility Wind Dir Wind Speed Gust Speed Precip Events Conditions
12:00 AM 53.6 °F 48.2 °F 82% 30.27 in 5.6 mi Variable 2.2 mph - N/A   Mostly Cloudy
12:30 AM 53.6 °F 48.2 °F 82% 30.27 in 5.0 mi Variable 4.5 mph - N/A   Overcast
1:00 AM 53.6 °F 48.2 °F 82% 30.27 in 5.0 mi WSW 4.5 mph - N/A   Overcast
1:30 AM 53.6 °F 48.2 °F 82% 30.27 in 5.0 mi Variable 2.2 mph - N/A   Overcast
2:00 AM 53 °F 49 °F 83% 30.28 in 6 mi NNE 4.5 mph - -   Overcast
2:00 AM 51.8 °F 48.2 °F 88% 30.27 in 5.0 mi Calm Calm - N/A   Overcast
2:30 AM 53.6 °F 48.2 °F 82% 30.27 in 5.0 mi North 6.7 mph - N/A   Overcast
3:00 AM 53.6 °F 48.2 °F 82% 30.27 in 5.6 mi NNE 6.7 mph - N/A   Overcast
3:30 AM 51.8 °F 48.2 °F 88% 30.27 in 6.2 mi NNE 11.2 mph - N/A   Overcast
4:00 AM 51.8 °F 48.2 °F 88% 30.27 in 6.2 mi NNE 8.9 mph - N/A   Overcast
4:30 AM 51.8 °F 48.2 °F 88% 30.27 in 6.2 mi North 6.7 mph - N/A   Overcast
5:00 AM 53 °F 49 °F 80% 30.27 in 6 mi North 6.7 mph - -   Overcast
5:00 AM 51.8 °F 46.4 °F 82% 30.24 in 6.2 mi NNE 6.7 mph - N/A   Overcast
5:30 AM 51.8 °F 48.2 °F 88% 30.24 in 6.2 mi North 6.7 mph - N/A   Overcast
6:00 AM 51.8 °F 48.2 °F 88% 30.24 in 6.2 mi North 8.9 mph - N/A   Overcast
6:30 AM 51.8 °F 48.2 °F 88% 30.24 in 6.2 mi North 8.9 mph - N/A   Overcast
7:00 AM 51.8 °F 48.2 °F 88% 30.24 in 5.6 mi North 8.9 mph - N/A   Overcast
7:30 AM 51.8 °F 48.2 °F 88% 30.24 in 5.0 mi North 8.9 mph - N/A   Overcast
8:00 AM 53 °F 47 °F 73% 30.25 in 6 mi North 6.7 mph - -   Mist
8:00 AM 51.8 °F 48.2 °F 88% 30.24 in 5.0 mi North 11.2 mph - N/A   Overcast
8:30 AM 51.8 °F 48.2 °F 88% 30.24 in 6.2 mi North 8.9 mph - N/A   Overcast
9:00 AM 53.6 °F 48.2 °F 82% 30.24 in 6.2 mi North 8.9 mph - N/A   Overcast
9:30 AM 53.6 °F 48.2 °F 82% 30.24 in 6.2 mi Variable 4.5 mph - N/A   Overcast
10:00 AM 53.6 °F 48.2 °F 82% 30.24 in 6.2 mi SSW 4.5 mph - N/A   Mostly Cloudy
10:30 AM 53.6 °F 48.2 °F 82% 30.24 in 6.2 mi Variable 2.2 mph - N/A   Mostly Cloudy
11:00 AM 54 °F 48 °F 73% 30.26 in 6 mi Calm Calm - -   Overcast
11:00 AM 53.6 °F 48.2 °F 82% 30.24 in 6.2 mi NNW 6.7 mph - N/A   Mostly Cloudy
11:30 AM 53.6 °F 48.2 °F 82% 30.24 in 6.2 mi Variable 6.7 mph - N/A   Overcast
12:00 PM 55.4 °F 48.2 °F 77% 30.21 in 6.2 mi NE 6.7 mph - N/A   Overcast
12:30 PM 55.4 °F 46.4 °F 72% 30.21 in 6.2 mi North 6.7 mph - N/A   Overcast
1:00 PM 55.4 °F 46.4 °F 72% 30.21 in 6.2 mi NNE 11.2 mph - N/A   Overcast
1:30 PM 53.6 °F 46.4 °F 77% 30.21 in 6.2 mi NE 8.9 mph - N/A   Overcast
2:00 PM 54 °F 49 °F 76% 30.22 in 6 mi North 13.4 mph - -   Overcast
2:00 PM 53.6 °F 46.4 °F 77% 30.18 in 6.2 mi NNE 11.2 mph - N/A   Overcast
2:30 PM 53.6 °F 46.4 °F 77% 30.18 in 6.2 mi NE 8.9 mph - N/A   Overcast
3:00 PM 53.6 °F 46.4 °F 77% 30.18 in 6.2 mi ENE 6.7 mph - N/A   Overcast
3:30 PM 51.8 °F 46.4 °F 82% 30.18 in 6.2 mi ENE 8.9 mph - N/A   Overcast
4:00 PM 51.8 °F 46.4 °F 82% 30.18 in 6.2 mi East 6.7 mph - N/A   Overcast
4:30 PM 51.8 °F 46.4 °F 82% 30.18 in 6.2 mi East 6.7 mph - N/A   Overcast
5:00 PM 52 °F 47 °F 77% 30.21 in 6 mi NE 4.5 mph - -   Mist
5:00 PM 51.8 °F 46.4 °F 82% 30.18 in 6.2 mi NNE 4.5 mph - N/A   Overcast
5:30 PM 51.8 °F 46.4 °F 82% 30.18 in 6.2 mi Calm Calm - N/A   Overcast
6:00 PM 51.8 °F 46.4 °F 82% 30.18 in 6.2 mi Calm Calm - N/A   Overcast
6:30 PM 51.8 °F 46.4 °F 82% 30.18 in 6.2 mi East 2.2 mph - N/A   Overcast
7:00 PM 51.8 °F 46.4 °F 82% 30.18 in 6.2 mi NE 4.5 mph - N/A   Overcast
7:30 PM 51.8 °F 46.4 °F 82% 30.18 in 6.2 mi ESE 4.5 mph - N/A   Overcast
8:00 PM 51 °F 47 °F 81% 30.21 in 6 mi NNE 4.5 mph - - Rain Light Drizzle
8:00 PM 51.8 °F 46.4 °F 82% 30.18 in 6.2 mi SW 2.2 mph - N/A   Overcast
8:30 PM 51.8 °F 46.4 °F 82% 30.18 in 6.2 mi North 4.5 mph - N/A   Mostly Cloudy
9:00 PM 51.8 °F 46.4 °F 82% 30.18 in 6.2 mi ENE 4.5 mph - N/A   Mostly Cloudy
9:30 PM 51.8 °F 46.4 °F 82% 30.18 in 5.0 mi ENE 4.5 mph - N/A   Mostly Cloudy
10:00 PM 51.8 °F 46.4 °F 82% 30.18 in 6.2 mi Calm Calm - N/A   Mostly Cloudy
10:30 PM 51.8 °F 48.2 °F 88% 30.18 in 6.2 mi Variable 2.2 mph - N/A   Overcast
11:00 PM 52 °F 47 °F 76% 30.19 in 6 mi NNW 4.5 mph - -   Partly Cloudy
11:00 PM 51.8 °F 48.2 °F 88% 30.18 in 6.2 mi Variable 2.2 mph - N/A   Overcast
11:30 PM 50.0 °F 48.2 °F 94% 30.18 in 6.2 mi Variable 2.2 mph - N/A   Overcast